{"data":{"norad_id":27612,"intl_designator":"2002-058H","name":"LATINSAT A","alt_names":[],"object_type":"PAYLOAD","status":"ACTIVE","operator":null,"country":"ARGN","launch_date":"2002-12-20","launch_site_code":"TYMSC","launch_vehicle":null,"mission":null,"orbit_class":"UNKNOWN","rcs_meters":0.033,"size_class":null,"mass_kg":null,"dimensions":null,"purposes":[],"wikipedia_slug":null,"has_3d_model":false,"image_url":null,"decayed_at":null,"tle_current":{"epoch":"2026-05-25T01:32:33.270144Z","epoch_age_seconds":83698,"freshness":"FRESH","line1":"1 27612U 02058H   26145.06427396  .00000503  00000+0  74461-4 0  9991","line2":"2 27612  64.5555  33.4273 0054262 251.4504 108.0704 14.85427081264194","mean_motion":14.85427081,"eccentricity":0.0054262,"inclination_deg":64.5555,"raan_deg":33.4273,"arg_perigee_deg":251.4504,"mean_anomaly_deg":108.0704,"bstar":7.4461e-5,"rev_number":26419,"period_min":96.94181682958,"perigee_km":574.31444071963,"apogee_km":650.17686944565,"semimajor_km":6990.3826550826,"source":"CELESTRAK","updated_at":"2026-05-25T13:37:55.030967Z"}}}